This demonstration page uses our WeatherBlox Daily Observations layout. Learn more.

Left ArrowRight Arrow

39.01783, -85.05884

Hourly Observations for March 3, 2018

Temp ( °F °C ) Dew Point ( °F °C ) Humidity (%) Winds ( mph kmh ) Pressure ( in mb ) Visibility ( mi km ) Precip ( " mm )
12:52 am 00:52 Clear 37 2.8 26 -3.3 65 65 ENE 7 11 30.42 1030 10 16 N/A
1:52 am 01:52 Clear 34 1.1 26 -3.3 73 73 E 5 7 30.43 1031 10 16 N/A
2:52 am 02:52 Clear 34 1.1 25 -3.9 70 70 N N/A 30.44 1031 10 16 N/A
3:52 am 03:52 Clear 30 -1.1 25 -3.9 82 82 N N/A 30.43 1031 10 16 N/A
4:52 am 04:52 Clear 29 -1.7 27 -2.8 92 92 N 7 11 30.42 1030 10 16 N/A
5:52 am 05:52 Clear 29 -1.7 27 -2.8 92 92 N N/A 30.44 1031 10 16 N/A
6:52 am 06:52 Clear 31 -0.6 27 -2.8 85 85 N 9 15 30.47 1032 10 16 N/A
7:52 am 07:52 Sunny 32 undefined 28 -2.2 85 85 N 5 7 30.49 1033 10 16 N/A
8:52 am 08:52 Sunny 35 1.7 29 -1.7 78 78 N 6 9 30.50 1033 10 16 N/A
9:52 am 09:52 Sunny 40 4.4 27 -2.8 60 60 ENE 9 15 30.49 1033 10 16 N/A
10:52 am 10:52 Sunny 42 5.6 25 -3.9 51 51 NE 9 15 30.50 1033 10 16 N/A
11:52 am 11:52 Sunny 45 7.2 25 -3.9 46 46 N 10 17 30.49 1033 10 16 N/A
12:52 pm 12:52 Sunny 46 7.8 22 -5.6 38 38 N 13 20 30.47 1032 10 16 N/A
1:52 pm 13:52 Sunny 48 8.9 23 -5 37 37 NNE 15 24 30.45 1031 10 16 N/A
2:52 pm 14:52 Sunny 49 9.4 21 -6.1 33 33 NNE 10 17 30.43 1031 10 16 N/A
3:52 pm 15:52 Sunny 49 9.4 19 -7.2 31 31 NNE 13 20 30.42 1030 10 16 N/A
4:52 pm 16:52 Sunny 48 8.9 17 -8.3 29 29 NNE 13 20 30.41 1030 10 16 N/A
5:52 pm 17:52 Sunny 46 7.8 19 -7.2 34 34 NE 13 20 30.41 1030 10 16 N/A
6:52 pm 18:52 Clear 42 5.6 25 -3.9 51 51 N 10 17 30.42 1030 10 16 N/A
7:52 pm 19:52 Clear 40 4.4 24 -4.4 53 53 N 12 19 30.43 1031 10 16 N/A
8:52 pm 20:52 Clear 39 3.9 24 -4.4 55 55 NNE 12 19 30.43 1031 10 16 N/A
9:52 pm 21:52 Clear 38 3.3 24 -4.4 57 57 NE 10 17 30.42 1030 10 16 N/A
10:52 pm 22:52 Clear 38 3.3 24 -4.4 57 57 NE 15 24 30.41 1030 10 16 N/A
11:52 pm 23:52 Clear 36 2.2 24 -4.4 62 62 NE 14 22 30.43 1030 10 16 N/A

Powered by AerisWeather